Location: Quebec
(46.8000°N, 71.2500°W)
Time: 18:54:42
(UTC-05:00)

N. Korean satellite - Pass Details

Date: 07 October 2017
Orbit: 461 x 513 km, 97.2° (Epoch: 11 December)

Event Time Altitude Azimuth Distance (km) Brightness Sun altitude
Rises 19:02:41 0° 179° (S) 2,574 10.2 -9.4°
Reaches altitude 10° 19:04:49 10° 185° (S) 1,688 9.4 -9.8°
Maximum altitude 19:08:20 48° 260° (W) 650 7.7 -10.4°
Drops below altitude 10° 19:11:50 10° 337° (NNW) 1,672 9.6 -11.0°
Sets 19:13:57 0° 343° (NNW) 2,548 10.5 -11.3°
